This demonstration page uses our WeatherBlox Daily Observations layout. Learn more.

Left ArrowRight Arrow

44.8408, -93.29828

Hourly Observations for February 5, 2019

Temp ( °F °C ) Dew Point ( °F °C ) Humidity (%) Winds ( mph kmh ) Pressure ( in mb ) Visibility ( mi km ) Precip ( " mm )
12:53 am 00:53 Mostly Clear 2 -16.7 -2 -18.9 83 83 NW 7 11 30.24 1024 10 16 0.00 0.00
1:53 am 01:53 Clear 2 -16.7 -3 -19.4 80 80 W 8 13 30.27 1025 10 16 0.00 0.00
2:53 am 02:53 Partly Cloudy 2 -16.7 -2 -18.9 83 83 WNW 6 9 30.28 1025 10 16 0.00 0.00
3:53 am 03:53 Cloudy 3 -16.1 -2 -18.9 79 79 NNW 8 13 30.25 1025 10 16 0.00 0.00
4:53 am 04:53 Cloudy 3 -16.1 -2 -18.9 79 79 N 9 15 30.24 1024 10 16 0.00 0.00
5:53 am 05:53 Cloudy 3 -16.1 -1 -18.3 83 83 N 8 13 30.27 1025 10 16 0.00 0.00
6:53 am 06:53 Cloudy 4 -15.6 -1 -18.3 80 80 N 8 13 30.29 1026 10 16 0.00 0.00
7:53 am 07:53 Cloudy 4 -15.6 0 -17.8 83 83 NNE 10 17 30.27 1025 10 16 0.00 0.00
8:53 am 08:53 Cloudy 4 -15.6 0 -17.8 83 83 NNE 6 9 30.30 1026 10 16 0.00 0.00
9:53 am 09:53 Cloudy with Light Snow 5 -15 1 -17.2 83 83 NE 6 9 30.29 1026 9 14 0.00 0.03
10:20 am 10:20 Cloudy with Light Snow 5 -15 0 -17.8 79 79 VRB 6 9 30.33 1027 3 5 0.01 0.25
10:50 am 10:50 Cloudy with Light Snow 5 -15 1 -17 85 85 NNE 6 9 30.33 1027 1 2 0.01 0.25
10:53 am 10:53 Cloudy with Light Snow 5 -15 1 -17.2 83 83 NE 6 9 30.30 1026 1 2 0.01 0.25
10:55 am 10:55 Cloudy with Light Snow 5 -15 1 -17.2 83 83 ENE 3 6 30.34 1028 1 1 0.00 0.03
11:08 am 11:08 Mostly Cloudy with Light Snow 5 -15 2 -16.7 87 87 NNE 5 7 30.34 1028 1 1 0.01 0.25
11:37 am 11:37 Mostly Cloudy with Snow 6 -14.4 2 -16.7 83 83 NE 3 6 30.33 1027 1 1 0.03 0.76
11:53 am 11:53 Cloudy with Snow 6 -14.4 3 -16.1 87 87 NE 5 7 30.28 1026 1 1 0.04 1.02
12:08 pm 12:08 Cloudy with Light Snow 6 -14.4 3 -16.1 87 87 NNE 8 13 30.30 1026 1 2 0.01 0.25
12:30 pm 12:30 Cloudy with Light Snow 6 -14.4 3 -16.1 87 87 N 9 15 30.27 1025 1 2 0.01 0.25
12:53 pm 12:53 Mostly Cloudy with Light Snow 6 -14.4 3 -16.1 87 87 NNE 9 15 30.24 1024 1 1 0.02 0.51
12:58 pm 12:58 Mostly Cloudy with Snow 6 -14.4 2 -16.7 83 83 NNE 9 15 30.27 1025 1 1 0.01 0.25
1:13 pm 13:13 Mostly Cloudy with Light Snow 6 -14.4 3 -16.1 87 87 NNE 9 15 30.26 1025 1 2 0.02 0.51
1:24 pm 13:24 Cloudy with Light Snow 6 -14.4 2 -16.7 83 83 NNE 12 19 30.25 1024 2 3 0.03 0.76
1:34 pm 13:34 Cloudy with Light Snow 6 -14.4 3 -16.1 87 87 NNE 9 15 30.25 1024 1 2 0.03 0.76
1:53 pm 13:53 Mostly Cloudy with Light Snow 6 -14.4 3 -16.1 87 87 NE 10 17 30.19 1022 1 1 0.04 1.02
2:01 pm 14:01 Mostly Cloudy with Light Snow 7 -13.9 3 -16.1 84 84 NNE 9 15 30.23 1024 1 2 0.01 0.25
2:23 pm 14:23 Mostly Cloudy with Light Snow 6 -14.4 3 -16.1 87 87 NNE 9 15 30.21 1023 1 1 0.02 0.51
2:27 pm 14:27 Mostly Cloudy with Snow 6 -14.4 3 -16.1 87 87 NNE 8 13 30.21 1023 1 1 0.03 0.76
2:39 pm 14:39 Mostly Cloudy with Light Snow 7 -13.9 4 -15.6 87 87 NNE 8 13 30.21 1023 1 1 0.03 0.76
2:53 pm 14:53 Cloudy with Light Snow 7 -13.9 4 -15.6 87 87 NNE 6 9 30.17 1022 1 1 0.04 1.02
2:55 pm 14:55 Cloudy with Light Snow 7 -13.9 4 -15.6 87 87 NNE 7 11 30.20 1023 2 3 0.00 0.03
3:06 pm 15:06 Cloudy with Light Snow 8 -13.3 5 -15 87 87 NE 7 11 30.19 1022 1 2 0.00 0.03
3:15 pm 15:15 Cloudy with Light Snow 8 -13.3 5 -15 87 87 NNE 6 9 30.20 1023 2 2 0.01 0.25
3:53 pm 15:53 Mostly Cloudy with Light Snow 8 -13.3 5 -15 87 87 N 6 9 30.17 1022 1 2 0.03 0.76
4:39 pm 16:39 Cloudy with Light Snow 9 -12.8 6 -14.4 88 88 N 7 11 30.20 1023 2 2 0.03 0.76
4:44 pm 16:44 Cloudy with Light Snow 9 -12.8 6 -14.4 88 88 N 8 13 30.19 1023 2 3 0.03 0.76
4:53 pm 16:53 Cloudy with Light Snow 9 -12.8 6 -14.4 88 88 N 6 9 30.17 1022 2 3 0.03 0.76
5:50 pm 17:50 Mostly Cloudy with Light Snow 9 -13 7 -14 92 92 NNE 8 13 30.20 1023 1 2 0.03 0.76
5:53 pm 17:53 Mostly Cloudy with Light Snow 9 -12.8 7 -13.9 92 92 NNE 7 11 30.16 1021 1 2 0.04 1.02
6:16 pm 18:16 Cloudy with Light Snow 9 -12.8 7 -13.9 92 92 NNE 7 11 30.18 1022 2 2 0.01 0.25
6:26 pm 18:26 Cloudy with Light Snow 9 -12.8 7 -13.9 92 92 N 9 15 30.18 1022 2 3 0.01 0.25
6:53 pm 18:53 Cloudy with Light Snow 9 -12.8 7 -13.9 92 92 NNE 7 11 30.16 1021 2 3 0.02 0.51
7:12 pm 19:12 Mostly Cloudy with Light Snow 9 -12.8 7 -13.9 92 92 N 7 11 30.19 1023 1 2 0.01 0.25
7:42 pm 19:42 Cloudy with Light Snow 10 -12.2 8 -13.3 92 92 E 8 13 30.17 1022 2 3 0.03 0.76
7:49 pm 19:49 Cloudy with Light Snow 10 -12 9 -13 92 92 ENE 7 11 30.17 1022 2 3 0.03 0.76
7:53 pm 19:53 Cloudy with Light Snow 11 -11.7 8 -13.3 88 88 E 7 11 30.14 1021 2 3 0.03 0.76
8:05 pm 20:05 Cloudy with Light Snow 11 -11.7 8 -13.3 88 88 ENE 6 9 30.17 1022 6 10 0.01 0.25
8:28 pm 20:28 Cloudy with Light Snow 11 -11.7 8 -13.3 88 88 VRB 5 7 30.17 1022 8 13 0.01 0.25
8:53 pm 20:53 Cloudy with Light Snow 11 -11.7 9 -12.8 92 92 N 6 9 30.14 1021 8 13 0.01 0.25
9:53 pm 21:53 Cloudy with Light Snow 12 -11.1 10 -12.2 92 92 NE 5 7 30.11 1020 8 13 0.00 0.03
10:22 pm 22:22 Cloudy with Light Snow 13 -10.6 11 -11.7 92 92 VRB 3 6 30.15 1021 6 10 0.00 0.03
10:35 pm 22:35 Cloudy with Light Freezing Drizzle 13 -10.6 12 -11.1 96 96 VRB 5 7 30.14 1021 4 6 0.00 0.03
10:53 pm 22:53 Cloudy with Light Freezing Drizzle 13 -10.6 12 -11.1 96 96 VRB 5 7 30.11 1020 6 10 0.00 0.03
11:53 pm 23:53 Cloudy with Light Wintry Mix 13 -10.6 13 -10.6 100 100 NNW 6 9 30.11 1020 3 5 0.00 0.03

Powered by AerisWeather